This is the latest recevied weather packets stored in our database for station/object N5PA. If no packets are shown the sender has not sent any weather packets the latest 1 day(s).
| Time | Temp. | Humidity | Pressure | Rain* | Wind** | Luminosity | Snow |
|---|---|---|---|---|---|---|---|
| 1778006406 | 26.67° C | 56% | 1012.5 hPa | 0 mm | 0.89 m/s, 190° | 990 W/m² | - |
| 1778006107 | 26.67° C | 56% | 1012.6 hPa | 0 mm | 0.89 m/s, 161° | 991 W/m² | - |
| 1778005806 | 26.67° C | 59% | 1012.6 hPa | 0 mm | 0.89 m/s, 160° | 993 W/m² | - |
| 1778005508 | 26.11° C | 59% | 1012.7 hPa | 0 mm | 0.89 m/s, 168° | 991 W/m² | - |
| 1778005206 | 26.11° C | 57% | 1012.8 hPa | 0 mm | 0.89 m/s, 148° | 993 W/m² | - |
| 1778004906 | 26.11° C | 57% | 1012.9 hPa | 0 mm | 1.34 m/s, 151° | 993 W/m² | - |
| 1778004607 | 26.11° C | 57% | 1013 hPa | 0 mm | 1.34 m/s, 196° | 991 W/m² | - |
| 1778004307 | 26.11° C | 56% | 1012.9 hPa | 0 mm | 1.34 m/s, 198° | 993 W/m² | - |
| 1778004007 | 26.11° C | 58% | 1012.9 hPa | 0 mm | 0.89 m/s, 173° | 993 W/m² | - |
| 1778003706 | 26.11° C | 57% | 1012.9 hPa | 0 mm | 1.34 m/s, 190° | 993 W/m² | - |
| 1778003406 | 26.11° C | 56% | 1013.1 hPa | 0 mm | 1.34 m/s, 177° | 993 W/m² | - |
| 1778003106 | 26.11° C | 56% | 1013.2 hPa | 0 mm | 1.34 m/s, 189° | 991 W/m² | - |
| 1778002806 | 26.11° C | 57% | 1013.3 hPa | 0 mm | 1.34 m/s, 197° | 991 W/m² | - |
| 1778002507 | 26.11° C | 57% | 1013.2 hPa | 0 mm | 1.34 m/s, 192° | 991 W/m² | - |
| 1778002207 | 26.11° C | 56% | 1013.3 hPa | 0 mm | 1.34 m/s, 200° | 991 W/m² | - |
| 1778001906 | 26.11° C | 56% | 1013.4 hPa | 0 mm | 1.34 m/s, 204° | 991 W/m² | - |
| 1778001607 | 26.11° C | 55% | 1013.2 hPa | 0 mm | 1.34 m/s, 195° | 993 W/m² | - |
| 1778001307 | 25.56° C | 58% | 1013.2 hPa | 0 mm | 1.34 m/s, 207° | 993 W/m² | - |
| 1778001008 | 25.56° C | 55% | 1013.4 hPa | 0 mm | 1.79 m/s, 195° | 993 W/m² | - |
| 1778000706 | 25.56° C | 55% | 1013.5 hPa | 0 mm | 1.34 m/s, 169° | 993 W/m² | - |
| 1778000407 | 25.56° C | 60% | 1013.6 hPa | 0 mm | 1.79 m/s, 184° | 993 W/m² | - |
| 1778000107 | 25° C | 58% | 1013.5 hPa | 0 mm | 1.79 m/s, 195° | 995 W/m² | - |
| 1777999807 | 25° C | 60% | 1013.6 hPa | 0 mm | 1.79 m/s, 212° | 995 W/m² | - |
| 1777999507 | 25° C | 61% | 1013.6 hPa | 0 mm | 1.79 m/s, 211° | 995 W/m² | - |
| 1777999206 | 24.44° C | 62% | 1013.6 hPa | 0 mm | 1.79 m/s, 198° | 995 W/m² | - |
* Rain latest hour (hover to see other rain measurements)
** Current wind speed in m/s (hover to see current wind gust speed)